Location: Presov
(49.0000°N, 21.2500°E)
Time: 19:49:57
(UTC+02:00)

BlueWalker 3 - Visible Passes

Search period start: 10 June 2023 00:00
Search period end: 20 June 2023 00:00
Orbit: 493 x 513 km, 53.2° (Epoch: 09 June)

Date Brightness Start Highest point End Pass type
(mag) Time Alt. Az. Time Alt. Az. Time Alt. Az.
10 Jun 4.4 00:42:37 10° WSW 00:42:46 10° WSW 00:42:46 10° WSW visible
10 Jun 2.0 22:42:12 10° WNW 22:46:00 59° SSW 22:48:02 25° SE visible
11 Jun 4.4 00:22:15 10° WSW 00:22:42 11° WSW 00:22:42 11° WSW visible
11 Jun 2.1 22:21:44 10° WNW 22:25:31 57° SSW 22:28:00 20° SE visible
12 Jun 4.3 00:01:52 10° WSW 00:02:39 11° WSW 00:02:39 11° WSW visible
12 Jun 2.2 22:01:15 10° WNW 22:05:02 56° SSW 22:07:59 16° SE visible
12 Jun 4.3 23:41:30 10° WSW 23:42:39 12° SW 23:42:39 12° SW visible
13 Jun 2.2 21:40:46 10° WNW 21:44:32 55° SSW 21:48:01 12° SE visible
13 Jun 4.3 23:21:07 10° WSW 23:22:22 11° SW 23:22:42 11° SW visible
14 Jun 2.3 21:20:16 10° WNW 21:24:02 54° SSW 21:27:48 10° SE visible
14 Jun 4.3 23:00:45 10° WSW 23:01:51 11° SW 23:02:47 10° SW visible
15 Jun 4.4 22:40:24 10° WSW 22:41:18 11° SW 22:42:12 10° SW visible
16 Jun 4.5 22:20:06 10° WSW 22:20:45 10° SW 22:21:26 10° SW visible
17 Jun 4.6 21:59:57 10° SW 22:00:12 10° SW 22:00:26 10° SW visible
